Year,Month,Day,Hour,Minute,Value (Times are PST for temperature in C)
2016,10,12,00,00,7.00
2016,10,12,00,01,6.90
2016,10,12,00,02,6.90
2016,10,12,00,03,6.90
2016,10,12,00,04,6.90
2016,10,12,00,05,6.90
2016,10,12,00,06,6.90
2016,10,12,00,07,6.80
2016,10,12,00,08,6.80
2016,10,12,00,09,6.80
2016,10,12,00,10,6.80
2016,10,12,00,11,6.80
2016,10,12,00,12,6.80
2016,10,12,00,13,6.80
2016,10,12,00,14,6.80
2016,10,12,00,15,6.80
2016,10,12,00,16,6.80
2016,10,12,00,17,6.70
2016,10,12,00,18,6.70
2016,10,12,00,19,6.70
2016,10,12,00,20,6.70
2016,10,12,00,21,6.70
2016,10,12,00,22,6.70
2016,10,12,00,23,6.70
2016,10,12,00,24,6.80
2016,10,12,00,25,6.80
2016,10,12,00,26,6.80
2016,10,12,00,27,6.80
2016,10,12,00,28,6.80
2016,10,12,00,29,6.80
2016,10,12,00,30,6.80
2016,10,12,00,31,6.70
2016,10,12,00,32,6.70
2016,10,12,00,33,6.70
2016,10,12,00,34,6.70
2016,10,12,00,35,6.70
2016,10,12,00,36,6.70
2016,10,12,00,37,6.60
2016,10,12,00,38,6.60
2016,10,12,00,39,6.60
2016,10,12,00,40,6.60
2016,10,12,00,41,6.60
2016,10,12,00,42,6.50
2016,10,12,00,43,6.50
2016,10,12,00,44,6.40
2016,10,12,00,45,6.40
2016,10,12,00,46,6.40
2016,10,12,00,47,6.40
2016,10,12,00,48,6.40
2016,10,12,00,49,6.40
2016,10,12,00,50,6.40
2016,10,12,00,51,6.40
2016,10,12,00,52,6.40
2016,10,12,00,53,6.40
2016,10,12,00,54,6.40
2016,10,12,00,55,6.40
2016,10,12,00,56,6.40
2016,10,12,00,57,6.40
2016,10,12,00,58,6.40
2016,10,12,00,59,6.40
2016,10,12,01,00,6.40
2016,10,12,01,01,6.40
2016,10,12,01,02,6.40
2016,10,12,01,03,6.40
2016,10,12,01,04,6.40
2016,10,12,01,05,6.40
2016,10,12,01,06,6.40
2016,10,12,01,07,6.40
2016,10,12,01,08,6.40
2016,10,12,01,09,6.40
2016,10,12,01,10,6.40
2016,10,12,01,11,6.40
2016,10,12,01,12,6.40
2016,10,12,01,13,6.40
2016,10,12,01,14,6.40
2016,10,12,01,15,6.30
2016,10,12,01,16,6.30
2016,10,12,01,17,6.30
2016,10,12,01,18,6.20
2016,10,12,01,19,6.20
2016,10,12,01,20,6.20
2016,10,12,01,21,6.20
2016,10,12,01,22,6.20
2016,10,12,01,23,6.20
2016,10,12,01,24,6.20
2016,10,12,01,25,6.10
2016,10,12,01,26,6.10
2016,10,12,01,27,6.10
2016,10,12,01,28,6.10
2016,10,12,01,29,6.10
2016,10,12,01,30,6.10
2016,10,12,01,31,6.10
2016,10,12,01,32,6.10
2016,10,12,01,33,6.10
2016,10,12,01,34,6.10
2016,10,12,01,35,6.10
2016,10,12,01,36,6.00
2016,10,12,01,37,6.00
2016,10,12,01,38,6.00
2016,10,12,01,39,5.90
2016,10,12,01,40,5.90
2016,10,12,01,41,5.90
2016,10,12,01,42,5.90
2016,10,12,01,43,5.90
2016,10,12,01,44,5.90
2016,10,12,01,45,5.90
2016,10,12,01,46,5.90
2016,10,12,01,47,5.90
2016,10,12,01,48,5.90
2016,10,12,01,49,5.90
2016,10,12,01,50,5.90
2016,10,12,01,51,5.90
2016,10,12,01,52,5.90
2016,10,12,01,53,5.90
2016,10,12,01,54,5.90
2016,10,12,01,55,5.90
2016,10,12,01,56,5.80
2016,10,12,01,57,5.80
2016,10,12,01,58,5.80
2016,10,12,01,59,5.80
2016,10,12,02,00,5.80
2016,10,12,02,01,5.80
2016,10,12,02,02,5.80
2016,10,12,02,03,5.80
2016,10,12,02,04,5.80
2016,10,12,02,05,5.80
2016,10,12,02,06,5.80
2016,10,12,02,07,5.80
2016,10,12,02,08,5.80
2016,10,12,02,09,5.80
2016,10,12,02,10,5.80
2016,10,12,02,11,5.80
2016,10,12,02,12,5.80
2016,10,12,02,13,5.80
2016,10,12,02,14,5.80
2016,10,12,02,15,5.80
2016,10,12,02,16,5.80
2016,10,12,02,17,5.80
2016,10,12,02,18,5.80
2016,10,12,02,19,5.80
2016,10,12,02,20,5.80
2016,10,12,02,21,5.80
2016,10,12,02,22,5.80
2016,10,12,02,23,5.80
2016,10,12,02,24,5.80
2016,10,12,02,25,5.80
2016,10,12,02,26,5.80
2016,10,12,02,27,5.80
2016,10,12,02,28,5.80
2016,10,12,02,29,5.80
2016,10,12,02,30,5.80
2016,10,12,02,31,5.80
2016,10,12,02,32,5.80
2016,10,12,02,33,5.80
2016,10,12,02,34,5.90
2016,10,12,02,35,5.90
2016,10,12,02,36,5.90
2016,10,12,02,37,5.90
2016,10,12,02,38,5.90
2016,10,12,02,39,5.90
2016,10,12,02,40,5.90
2016,10,12,02,41,5.90
2016,10,12,02,42,5.80
2016,10,12,02,43,5.80
2016,10,12,02,44,5.80
2016,10,12,02,45,5.80
2016,10,12,02,46,5.80
2016,10,12,02,47,5.80
2016,10,12,02,48,5.80
2016,10,12,02,49,5.80
2016,10,12,02,50,5.80
2016,10,12,02,51,5.80
2016,10,12,02,52,5.80
2016,10,12,02,53,5.80
2016,10,12,02,54,5.80
2016,10,12,02,55,5.80
2016,10,12,02,56,5.80
2016,10,12,02,57,5.80
2016,10,12,02,58,5.80
2016,10,12,02,59,5.80
2016,10,12,03,00,5.80
2016,10,12,03,01,5.80
2016,10,12,03,02,5.80
2016,10,12,03,03,5.90
2016,10,12,03,04,5.90
2016,10,12,03,05,5.80
2016,10,12,03,06,5.90
2016,10,12,03,07,5.80
2016,10,12,03,08,5.80
2016,10,12,03,09,5.80
2016,10,12,03,10,5.80
2016,10,12,03,11,5.80
2016,10,12,03,12,5.80
2016,10,12,03,13,5.80
2016,10,12,03,14,5.70
2016,10,12,03,15,5.70
2016,10,12,03,16,5.70
2016,10,12,03,17,5.70
2016,10,12,03,18,5.70
2016,10,12,03,19,5.70
2016,10,12,03,20,5.70
2016,10,12,03,21,5.70
2016,10,12,03,22,5.70
2016,10,12,03,23,5.70
2016,10,12,03,24,5.70
2016,10,12,03,25,5.80
2016,10,12,03,26,5.80
2016,10,12,03,27,5.80
2016,10,12,03,28,5.80
2016,10,12,03,29,5.80
2016,10,12,03,30,5.80
2016,10,12,03,31,5.80
2016,10,12,03,32,5.70
2016,10,12,03,33,5.70
2016,10,12,03,34,5.70
2016,10,12,03,35,5.70
2016,10,12,03,36,5.70
2016,10,12,03,37,5.70
2016,10,12,03,38,5.70
2016,10,12,03,39,5.80
2016,10,12,03,40,5.80
2016,10,12,03,41,5.80
2016,10,12,03,42,5.80
2016,10,12,03,43,5.80
2016,10,12,03,44,5.70
2016,10,12,03,45,5.70
2016,10,12,03,46,5.70
2016,10,12,03,47,5.70
2016,10,12,03,48,5.70
2016,10,12,03,49,5.70
2016,10,12,03,50,5.80
2016,10,12,03,51,5.80
2016,10,12,03,52,5.80
2016,10,12,03,53,5.80
2016,10,12,03,54,5.80
2016,10,12,03,55,5.80
2016,10,12,03,56,5.80
2016,10,12,03,57,5.80
2016,10,12,03,58,5.80
2016,10,12,03,59,5.80
2016,10,12,04,00,5.80
2016,10,12,04,01,5.90
2016,10,12,04,02,5.90
2016,10,12,04,03,5.90
2016,10,12,04,04,5.90
2016,10,12,04,05,5.90
2016,10,12,04,06,6.00
2016,10,12,04,07,6.00
2016,10,12,04,08,6.00
2016,10,12,04,09,6.10
2016,10,12,04,10,6.10
2016,10,12,04,11,6.20
2016,10,12,04,12,6.20
2016,10,12,04,13,6.20
2016,10,12,04,14,6.20
2016,10,12,04,15,6.20
2016,10,12,04,16,6.30
2016,10,12,04,17,6.30
2016,10,12,04,18,6.30
2016,10,12,04,19,6.30
2016,10,12,04,20,6.30
2016,10,12,04,21,6.30
2016,10,12,04,22,6.30
2016,10,12,04,23,6.30
2016,10,12,04,24,6.30
2016,10,12,04,25,6.30
2016,10,12,04,26,6.30
2016,10,12,04,27,6.30
2016,10,12,04,28,6.30
2016,10,12,04,29,6.30
2016,10,12,04,30,6.40
2016,10,12,04,31,6.40
2016,10,12,04,32,6.30
2016,10,12,04,33,6.30
2016,10,12,04,34,6.30
2016,10,12,04,35,6.30
2016,10,12,04,36,6.30
2016,10,12,04,37,6.30
2016,10,12,04,38,6.30
2016,10,12,04,39,6.30
2016,10,12,04,40,6.30
2016,10,12,04,41,6.30
2016,10,12,04,42,6.30
2016,10,12,04,43,6.30
2016,10,12,04,44,6.30
2016,10,12,04,45,6.30
2016,10,12,04,46,6.30
2016,10,12,04,47,6.30
2016,10,12,04,48,6.30
2016,10,12,04,49,6.30
2016,10,12,04,50,6.30
2016,10,12,04,51,6.30
2016,10,12,04,52,6.20
2016,10,12,04,53,6.20
2016,10,12,04,54,6.20
2016,10,12,04,55,6.20
2016,10,12,04,56,6.20
2016,10,12,04,57,6.20
2016,10,12,04,58,6.20
2016,10,12,04,59,6.20
2016,10,12,05,00,6.20
2016,10,12,05,01,6.20
2016,10,12,05,02,6.20
2016,10,12,05,03,6.20
2016,10,12,05,04,6.20
2016,10,12,05,05,6.20
2016,10,12,05,06,6.20
2016,10,12,05,07,6.10
2016,10,12,05,08,6.10
2016,10,12,05,09,6.10
2016,10,12,05,10,6.10
2016,10,12,05,11,6.10
2016,10,12,05,12,6.00
2016,10,12,05,13,6.00
2016,10,12,05,14,6.00
2016,10,12,05,15,5.90
2016,10,12,05,16,5.90
2016,10,12,05,17,5.90
2016,10,12,05,18,5.90
2016,10,12,05,19,5.90
2016,10,12,05,20,5.90
2016,10,12,05,21,6.00
2016,10,12,05,22,6.00
2016,10,12,05,23,6.00
2016,10,12,05,24,6.00
2016,10,12,05,25,6.00
2016,10,12,05,26,6.00
2016,10,12,05,27,6.10
2016,10,12,05,28,6.10
2016,10,12,05,29,6.10
2016,10,12,05,30,6.10
2016,10,12,05,31,6.10
2016,10,12,05,32,6.20
2016,10,12,05,33,6.20
2016,10,12,05,34,6.20
2016,10,12,05,35,6.20
2016,10,12,05,36,6.20
2016,10,12,05,37,6.20
2016,10,12,05,38,6.20
2016,10,12,05,39,6.20
2016,10,12,05,40,6.20
2016,10,12,05,41,6.20
2016,10,12,05,42,6.30
2016,10,12,05,43,6.20
2016,10,12,05,44,6.20
2016,10,12,05,45,6.20
2016,10,12,05,46,6.20
2016,10,12,05,47,6.20
2016,10,12,05,48,6.20
2016,10,12,05,49,6.20
2016,10,12,05,50,6.20
2016,10,12,05,51,6.20
2016,10,12,05,52,6.20
2016,10,12,05,53,6.20
2016,10,12,05,54,6.30
2016,10,12,05,55,6.30
2016,10,12,05,56,6.30
2016,10,12,05,57,6.30
2016,10,12,05,58,6.30
2016,10,12,05,59,6.40
2016,10,12,06,00,6.40
2016,10,12,06,01,6.40
2016,10,12,06,02,6.40
2016,10,12,06,03,6.40
2016,10,12,06,04,6.40
2016,10,12,06,05,6.40
2016,10,12,06,06,6.40
2016,10,12,06,07,6.40
2016,10,12,06,08,6.40
2016,10,12,06,09,6.50
2016,10,12,06,10,6.50
2016,10,12,06,11,6.40
2016,10,12,06,12,6.40
2016,10,12,06,13,6.40
2016,10,12,06,14,6.40
2016,10,12,06,15,6.40
2016,10,12,06,16,6.40
2016,10,12,06,17,6.40
2016,10,12,06,18,6.40
2016,10,12,06,19,6.40
2016,10,12,06,20,6.40
2016,10,12,06,21,6.30
2016,10,12,06,22,6.40
2016,10,12,06,23,6.40
2016,10,12,06,24,6.40
2016,10,12,06,25,6.40
2016,10,12,06,26,6.40
2016,10,12,06,27,6.40
2016,10,12,06,28,6.40
2016,10,12,06,29,6.40
2016,10,12,06,30,6.50
2016,10,12,06,31,6.50
2016,10,12,06,32,6.50
2016,10,12,06,33,6.50
2016,10,12,06,34,6.50
2016,10,12,06,35,6.60
2016,10,12,06,36,6.60
2016,10,12,06,37,6.60
2016,10,12,06,38,6.60
2016,10,12,06,39,6.70
2016,10,12,06,40,6.70
2016,10,12,06,41,6.80
2016,10,12,06,42,6.80
2016,10,12,06,43,6.80
2016,10,12,06,44,6.80
2016,10,12,06,45,6.90
2016,10,12,06,46,6.90
2016,10,12,06,47,6.90
2016,10,12,06,48,6.90
2016,10,12,06,49,6.90
2016,10,12,06,50,6.80
2016,10,12,06,51,6.90
2016,10,12,06,52,6.90
2016,10,12,06,53,6.90
2016,10,12,06,54,6.90
2016,10,12,06,55,6.90
2016,10,12,06,56,6.90
2016,10,12,06,57,6.90
2016,10,12,06,58,6.90
2016,10,12,06,59,6.90
2016,10,12,07,00,6.80
2016,10,12,07,01,6.80
2016,10,12,07,02,6.80
2016,10,12,07,03,6.80
2016,10,12,07,04,6.80
2016,10,12,07,05,6.80
2016,10,12,07,06,6.80
2016,10,12,07,07,6.80
2016,10,12,07,08,6.70
2016,10,12,07,09,6.70
2016,10,12,07,10,6.70
2016,10,12,07,11,6.70
2016,10,12,07,12,6.70
2016,10,12,07,13,6.70
2016,10,12,07,14,6.70
2016,10,12,07,15,6.70
2016,10,12,07,16,6.70
2016,10,12,07,17,6.70
2016,10,12,07,18,6.70
2016,10,12,07,19,6.70
2016,10,12,07,20,6.70
2016,10,12,07,21,6.70
2016,10,12,07,22,6.70
2016,10,12,07,23,6.70
2016,10,12,07,24,6.70
2016,10,12,07,25,6.70
2016,10,12,07,26,6.70
2016,10,12,07,27,6.70
2016,10,12,07,28,6.70
2016,10,12,07,29,6.70
2016,10,12,07,30,6.70
2016,10,12,07,31,6.60
2016,10,12,07,32,6.60
2016,10,12,07,33,6.60
2016,10,12,07,34,6.60
2016,10,12,07,35,6.60
2016,10,12,07,36,6.60
2016,10,12,07,37,6.60
2016,10,12,07,38,6.50
2016,10,12,07,39,6.50
2016,10,12,07,40,6.50
2016,10,12,07,41,6.50
2016,10,12,07,42,6.50
2016,10,12,07,43,6.60
2016,10,12,07,44,6.60
2016,10,12,07,45,6.60
2016,10,12,07,46,6.70
2016,10,12,07,47,6.70
2016,10,12,07,48,6.70
2016,10,12,07,49,6.70
2016,10,12,07,50,6.80
2016,10,12,07,51,6.80
2016,10,12,07,52,6.80
2016,10,12,07,53,6.80
2016,10,12,07,54,6.80
2016,10,12,07,55,6.90
2016,10,12,07,56,6.90
2016,10,12,07,57,6.90
2016,10,12,07,58,6.90
2016,10,12,07,59,6.90
2016,10,12,08,00,6.90
2016,10,12,08,01,6.90
2016,10,12,08,02,6.90
2016,10,12,08,03,6.90
2016,10,12,08,04,6.90
2016,10,12,08,05,6.90
2016,10,12,08,06,6.90
2016,10,12,08,07,6.90
2016,10,12,08,08,6.90
2016,10,12,08,09,6.90
2016,10,12,08,10,6.90
2016,10,12,08,11,6.90
2016,10,12,08,12,6.90
2016,10,12,08,13,6.90
2016,10,12,08,14,6.90
2016,10,12,08,15,7.00
2016,10,12,08,16,7.00
2016,10,12,08,17,7.00
2016,10,12,08,18,7.10
2016,10,12,08,19,7.10
2016,10,12,08,20,7.10
2016,10,12,08,21,7.20
2016,10,12,08,22,7.20
2016,10,12,08,23,7.20
2016,10,12,08,24,7.30
2016,10,12,08,25,7.30
2016,10,12,08,26,7.30
2016,10,12,08,27,7.30
2016,10,12,08,28,7.30
2016,10,12,08,29,7.40
2016,10,12,08,30,7.40
2016,10,12,08,31,7.40
2016,10,12,08,32,7.40
2016,10,12,08,33,7.50
2016,10,12,08,34,7.50
2016,10,12,08,35,7.60
2016,10,12,08,36,7.60
2016,10,12,08,37,7.60
2016,10,12,08,38,7.70
2016,10,12,08,39,7.70
2016,10,12,08,40,7.80
2016,10,12,08,41,7.80
2016,10,12,08,42,7.80
2016,10,12,08,43,7.90
2016,10,12,08,44,7.90
2016,10,12,08,45,8.00
2016,10,12,08,46,8.00
2016,10,12,08,47,8.10
2016,10,12,08,48,8.10
2016,10,12,08,49,8.10
2016,10,12,08,50,8.20
2016,10,12,08,51,8.20
2016,10,12,08,52,8.20
2016,10,12,08,53,8.30
2016,10,12,08,54,8.30
2016,10,12,08,55,8.30
2016,10,12,08,56,8.40
2016,10,12,08,57,8.40
2016,10,12,08,58,8.50
2016,10,12,08,59,8.50
2016,10,12,09,00,8.50
2016,10,12,09,01,8.60
2016,10,12,09,02,8.60
2016,10,12,09,03,8.60
2016,10,12,09,04,8.70
2016,10,12,09,05,8.70
2016,10,12,09,06,8.70
2016,10,12,09,07,8.80
2016,10,12,09,08,8.80
2016,10,12,09,09,8.80
2016,10,12,09,10,8.80
2016,10,12,09,11,8.80
2016,10,12,09,12,8.90
2016,10,12,09,13,8.90
2016,10,12,09,14,8.90
2016,10,12,09,15,8.90
2016,10,12,09,16,9.00
2016,10,12,09,17,9.00
2016,10,12,09,18,9.00
2016,10,12,09,19,9.00
2016,10,12,09,20,9.00
2016,10,12,09,21,9.10
2016,10,12,09,22,9.10
2016,10,12,09,23,9.10
2016,10,12,09,24,9.10
2016,10,12,09,25,9.10
2016,10,12,09,26,9.10
2016,10,12,09,27,9.20
2016,10,12,09,28,9.20
2016,10,12,09,29,9.20
2016,10,12,09,30,9.20
2016,10,12,09,31,9.20
2016,10,12,09,32,9.20
2016,10,12,09,33,9.20
2016,10,12,09,34,9.30
2016,10,12,09,35,9.30
2016,10,12,09,36,9.30
2016,10,12,09,37,9.30
2016,10,12,09,38,9.30
2016,10,12,09,39,9.30
2016,10,12,09,40,9.30
2016,10,12,09,41,9.30
2016,10,12,09,42,9.30
2016,10,12,09,43,9.30
2016,10,12,09,44,9.30
2016,10,12,09,45,9.30
2016,10,12,09,46,9.30
2016,10,12,09,47,9.30
2016,10,12,09,48,9.30
2016,10,12,09,49,9.30
2016,10,12,09,50,9.30
2016,10,12,09,51,9.30
2016,10,12,09,52,9.30
2016,10,12,09,53,9.30
2016,10,12,09,54,9.30
2016,10,12,09,55,9.40
2016,10,12,09,56,9.40
2016,10,12,09,57,9.40
2016,10,12,09,58,9.40
2016,10,12,09,59,9.40
2016,10,12,10,00,9.40
2016,10,12,10,01,9.40
2016,10,12,10,02,9.40
2016,10,12,10,03,9.50
2016,10,12,10,04,9.50
2016,10,12,10,05,9.50
2016,10,12,10,06,9.50
2016,10,12,10,07,9.60
2016,10,12,10,08,9.60
2016,10,12,10,09,9.60
2016,10,12,10,10,9.60
2016,10,12,10,11,9.60
2016,10,12,10,12,9.60
2016,10,12,10,13,9.60
2016,10,12,10,14,9.60
2016,10,12,10,15,9.60
2016,10,12,10,16,9.60
2016,10,12,10,17,9.60
2016,10,12,10,18,9.70
2016,10,12,10,19,9.70
2016,10,12,10,20,9.70
2016,10,12,10,21,9.70
2016,10,12,10,22,9.80
2016,10,12,10,23,9.80
2016,10,12,10,24,9.80
2016,10,12,10,25,9.80
2016,10,12,10,26,9.80
2016,10,12,10,27,9.80
2016,10,12,10,28,9.80
2016,10,12,10,29,9.80
2016,10,12,10,30,9.80
2016,10,12,10,31,9.80
2016,10,12,10,32,9.90
2016,10,12,10,33,9.90
2016,10,12,10,34,9.90
2016,10,12,10,35,9.90
2016,10,12,10,36,9.90
2016,10,12,10,37,10.00
2016,10,12,10,38,10.00
2016,10,12,10,39,10.10
2016,10,12,10,40,10.10
2016,10,12,10,41,10.20
2016,10,12,10,42,10.20
2016,10,12,10,43,10.20
2016,10,12,10,44,10.20
2016,10,12,10,45,10.30
2016,10,12,10,46,10.30
2016,10,12,10,47,10.30
2016,10,12,10,48,10.30
2016,10,12,10,49,10.30
2016,10,12,10,50,10.30
2016,10,12,10,51,10.30
2016,10,12,10,52,10.40
2016,10,12,10,53,10.40
2016,10,12,10,54,10.40
2016,10,12,10,55,10.50
2016,10,12,10,56,10.50
2016,10,12,10,57,10.60
2016,10,12,10,58,10.60
2016,10,12,10,59,10.60
2016,10,12,11,00,10.60
2016,10,12,11,01,10.60
2016,10,12,11,02,10.70
2016,10,12,11,03,10.70
2016,10,12,11,04,10.70
2016,10,12,11,05,10.70
2016,10,12,11,06,10.80
2016,10,12,11,07,10.80
2016,10,12,11,08,10.80
2016,10,12,11,09,10.80
2016,10,12,11,10,10.80
2016,10,12,11,11,10.90
2016,10,12,11,12,10.90
2016,10,12,11,13,11.00
2016,10,12,11,14,11.00
2016,10,12,11,15,11.00
2016,10,12,11,16,11.00
2016,10,12,11,17,11.00
2016,10,12,11,18,11.00
2016,10,12,11,19,11.00
2016,10,12,11,20,11.00
2016,10,12,11,21,11.00
2016,10,12,11,22,11.00
2016,10,12,11,23,11.00
2016,10,12,11,24,11.10
2016,10,12,11,25,11.10
2016,10,12,11,26,11.10
2016,10,12,11,27,11.20
2016,10,12,11,28,11.20
2016,10,12,11,29,11.20
2016,10,12,11,30,11.20
2016,10,12,11,31,11.20
2016,10,12,11,32,11.10
2016,10,12,11,33,11.10
2016,10,12,11,34,11.10
2016,10,12,11,35,11.10
2016,10,12,11,36,11.10
2016,10,12,11,37,11.10
2016,10,12,11,38,11.20
2016,10,12,11,39,11.20
2016,10,12,11,40,11.20
2016,10,12,11,41,11.20
2016,10,12,11,42,11.20
2016,10,12,11,43,11.20
2016,10,12,11,44,11.20
2016,10,12,11,45,11.20
2016,10,12,11,46,11.30
2016,10,12,11,47,11.30
2016,10,12,11,48,11.30
2016,10,12,11,49,11.30
2016,10,12,11,50,11.30
2016,10,12,11,51,11.30
2016,10,12,11,52,11.20
2016,10,12,11,53,11.20
2016,10,12,11,54,11.20
2016,10,12,11,55,11.10
2016,10,12,11,56,11.10
2016,10,12,11,57,11.10
2016,10,12,11,58,11.10
2016,10,12,11,59,11.10
2016,10,12,12,00,11.10
2016,10,12,12,01,11.10
2016,10,12,12,02,11.10
2016,10,12,12,03,11.10
2016,10,12,12,04,11.10
2016,10,12,12,05,11.00
2016,10,12,12,06,11.00
2016,10,12,12,07,11.00
2016,10,12,12,08,11.00
2016,10,12,12,09,11.00
2016,10,12,12,10,11.00
2016,10,12,12,11,11.10
2016,10,12,12,12,11.10
2016,10,12,12,13,11.10
2016,10,12,12,14,11.10
2016,10,12,12,15,11.10
2016,10,12,12,16,11.10
2016,10,12,12,17,11.10
2016,10,12,12,18,11.10
2016,10,12,12,19,11.10
2016,10,12,12,20,11.10
2016,10,12,12,21,11.10
2016,10,12,12,22,11.10
2016,10,12,12,23,11.10
2016,10,12,12,24,11.20
2016,10,12,12,25,11.20
2016,10,12,12,26,11.20
2016,10,12,12,27,11.20
2016,10,12,12,28,11.30
2016,10,12,12,29,11.30
2016,10,12,12,30,11.30
2016,10,12,12,31,11.40
2016,10,12,12,32,11.40
2016,10,12,12,33,11.40
2016,10,12,12,34,11.50
2016,10,12,12,35,11.50
2016,10,12,12,36,11.50
2016,10,12,12,37,11.60
2016,10,12,12,38,11.60
2016,10,12,12,39,11.60
2016,10,12,12,40,11.70
2016,10,12,12,41,11.80
2016,10,12,12,42,11.80
2016,10,12,12,43,11.80
2016,10,12,12,44,11.90
2016,10,12,12,45,11.90
2016,10,12,12,46,11.90
2016,10,12,12,47,11.90
2016,10,12,12,48,11.90
2016,10,12,12,49,12.00
2016,10,12,12,50,12.00
2016,10,12,12,51,12.00
2016,10,12,12,52,12.00
2016,10,12,12,53,12.00
2016,10,12,12,54,12.00
2016,10,12,12,55,12.00
2016,10,12,12,56,12.10
2016,10,12,12,57,12.10
2016,10,12,12,58,12.10
2016,10,12,12,59,12.10
2016,10,12,13,00,12.10
2016,10,12,13,01,12.10
2016,10,12,13,02,12.20
2016,10,12,13,03,12.20
2016,10,12,13,04,12.20
2016,10,12,13,05,12.30
2016,10,12,13,06,12.30
2016,10,12,13,07,12.30
2016,10,12,13,08,12.30
2016,10,12,13,09,12.30
2016,10,12,13,10,12.30
2016,10,12,13,11,12.30
2016,10,12,13,12,12.40
2016,10,12,13,13,12.40
2016,10,12,13,14,12.40
2016,10,12,13,15,12.40
2016,10,12,13,16,12.40
2016,10,12,13,17,12.30
2016,10,12,13,18,12.30
2016,10,12,13,19,12.40
2016,10,12,13,20,12.40
2016,10,12,13,21,12.40
2016,10,12,13,22,12.40
2016,10,12,13,23,12.50
2016,10,12,13,24,12.50
2016,10,12,13,25,12.50
2016,10,12,13,26,12.60
2016,10,12,13,27,12.60
2016,10,12,13,28,12.60
2016,10,12,13,29,12.60
2016,10,12,13,30,12.60
2016,10,12,13,31,12.70
2016,10,12,13,32,12.70
2016,10,12,13,33,12.70
2016,10,12,13,34,12.70
2016,10,12,13,35,12.80
2016,10,12,13,36,12.80
2016,10,12,13,37,12.80
2016,10,12,13,38,12.80
2016,10,12,13,39,12.80
2016,10,12,13,40,12.80
2016,10,12,13,41,12.80
2016,10,12,13,42,12.90
2016,10,12,13,43,12.90
2016,10,12,13,44,13.00
2016,10,12,13,45,13.10
2016,10,12,13,46,13.10
2016,10,12,13,47,13.20
2016,10,12,13,48,13.20
2016,10,12,13,49,13.20
2016,10,12,13,50,13.20
2016,10,12,13,51,13.30
2016,10,12,13,52,13.30
2016,10,12,13,53,13.30
2016,10,12,13,54,13.30
2016,10,12,13,55,13.40
2016,10,12,13,56,13.40
2016,10,12,13,57,13.40
2016,10,12,13,58,13.40
2016,10,12,13,59,13.40
2016,10,12,14,00,13.40
2016,10,12,14,01,13.40
2016,10,12,14,02,13.50
2016,10,12,14,03,13.50
2016,10,12,14,04,13.40
2016,10,12,14,05,13.40
2016,10,12,14,06,13.40
2016,10,12,14,07,13.40
2016,10,12,14,08,13.40
2016,10,12,14,09,13.50
2016,10,12,14,10,13.50
2016,10,12,14,11,13.40
2016,10,12,14,12,13.40
2016,10,12,14,13,13.40
2016,10,12,14,14,13.40
2016,10,12,14,15,13.40
2016,10,12,14,16,13.40
2016,10,12,14,17,13.40
2016,10,12,14,18,13.40
2016,10,12,14,19,13.40
2016,10,12,14,20,13.40
2016,10,12,14,21,13.40
2016,10,12,14,22,13.40
2016,10,12,14,23,13.40
2016,10,12,14,24,13.50
2016,10,12,14,25,13.50
2016,10,12,14,26,13.50
2016,10,12,14,27,13.50
2016,10,12,14,28,13.50
2016,10,12,14,29,13.50
2016,10,12,14,30,13.50
2016,10,12,14,31,13.50
2016,10,12,14,32,13.50
2016,10,12,14,33,13.50
2016,10,12,14,34,13.60
2016,10,12,14,35,13.60
2016,10,12,14,36,13.70
2016,10,12,14,37,13.70
2016,10,12,14,38,13.70
2016,10,12,14,39,13.80
2016,10,12,14,40,13.80
2016,10,12,14,41,13.80
2016,10,12,14,42,13.80
2016,10,12,14,43,13.70
2016,10,12,14,44,13.70
2016,10,12,14,45,13.70
2016,10,12,14,46,13.70
2016,10,12,14,47,13.70
2016,10,12,14,48,13.70
2016,10,12,14,49,13.70
2016,10,12,14,50,13.70
2016,10,12,14,51,13.70
2016,10,12,14,52,13.70
2016,10,12,14,53,13.70
2016,10,12,14,54,13.70
2016,10,12,14,55,13.70
2016,10,12,14,56,13.70
2016,10,12,14,57,13.70
2016,10,12,14,58,13.70
2016,10,12,14,59,13.70
2016,10,12,15,00,13.70
2016,10,12,15,01,13.80
2016,10,12,15,02,13.80
2016,10,12,15,03,13.80
2016,10,12,15,04,13.80
2016,10,12,15,05,13.80
2016,10,12,15,06,13.80
2016,10,12,15,07,13.80
2016,10,12,15,08,13.80
2016,10,12,15,09,13.80
2016,10,12,15,10,13.80
2016,10,12,15,11,13.70
2016,10,12,15,12,13.70
2016,10,12,15,13,13.60
2016,10,12,15,14,13.50
2016,10,12,15,15,13.50
2016,10,12,15,16,13.40
2016,10,12,15,17,13.40
2016,10,12,15,18,13.30
2016,10,12,15,19,13.30
2016,10,12,15,20,13.30
2016,10,12,15,21,13.30
2016,10,12,15,22,13.30
2016,10,12,15,23,13.30
2016,10,12,15,24,13.30
2016,10,12,15,25,13.30
2016,10,12,15,26,13.30
2016,10,12,15,27,13.30
2016,10,12,15,28,13.30
2016,10,12,15,29,13.40
2016,10,12,15,30,13.40
2016,10,12,15,31,13.40
2016,10,12,15,32,13.40
2016,10,12,15,33,13.40
2016,10,12,15,34,13.40
2016,10,12,15,35,13.40
2016,10,12,15,36,13.40
2016,10,12,15,37,13.30
2016,10,12,15,38,13.30
2016,10,12,15,39,13.30
2016,10,12,15,40,13.30
2016,10,12,15,41,13.30
2016,10,12,15,42,13.30
2016,10,12,15,43,13.30
2016,10,12,15,44,13.30
2016,10,12,15,45,13.30
2016,10,12,15,46,13.30
2016,10,12,15,47,13.30
2016,10,12,15,48,13.30
2016,10,12,15,49,13.30
2016,10,12,15,50,13.30
2016,10,12,15,51,13.30
2016,10,12,15,52,13.30
2016,10,12,15,53,13.30
2016,10,12,15,54,13.30
2016,10,12,15,55,13.30
2016,10,12,15,56,13.30
2016,10,12,15,57,13.30
2016,10,12,15,58,13.30
2016,10,12,15,59,13.30
2016,10,12,16,00,13.30
2016,10,12,16,01,13.30
2016,10,12,16,02,13.30
2016,10,12,16,03,13.30
2016,10,12,16,04,13.30
2016,10,12,16,05,13.30
2016,10,12,16,06,13.30
2016,10,12,16,07,13.30
2016,10,12,16,08,13.30
2016,10,12,16,09,13.30
2016,10,12,16,10,13.30
2016,10,12,16,11,13.30
2016,10,12,16,12,13.30
2016,10,12,16,13,13.30
2016,10,12,16,14,13.30
2016,10,12,16,15,13.20
2016,10,12,16,16,13.20
2016,10,12,16,17,13.20
2016,10,12,16,18,13.20
2016,10,12,16,19,13.20
2016,10,12,16,20,13.20
2016,10,12,16,21,13.20
2016,10,12,16,22,13.10
2016,10,12,16,23,13.10
2016,10,12,16,24,13.10
2016,10,12,16,25,13.10
2016,10,12,16,26,13.00
2016,10,12,16,27,13.00
2016,10,12,16,28,13.00
2016,10,12,16,29,13.00
2016,10,12,16,30,13.00
2016,10,12,16,31,13.00
2016,10,12,16,32,12.90
2016,10,12,16,33,12.90
2016,10,12,16,34,12.90
2016,10,12,16,35,12.90
2016,10,12,16,36,12.90
2016,10,12,16,37,12.90
2016,10,12,16,38,12.90
2016,10,12,16,39,12.90
2016,10,12,16,40,12.90
2016,10,12,16,41,12.90
2016,10,12,16,42,12.80
2016,10,12,16,43,12.80
2016,10,12,16,44,12.80
2016,10,12,16,45,12.80
2016,10,12,16,46,12.80
2016,10,12,16,47,12.80
2016,10,12,16,48,12.80
2016,10,12,16,49,12.80
2016,10,12,16,50,12.80
2016,10,12,16,51,12.80
2016,10,12,16,52,12.80
2016,10,12,16,53,12.80
2016,10,12,16,54,12.80
2016,10,12,16,55,12.80
2016,10,12,16,56,12.80
2016,10,12,16,57,12.80
2016,10,12,16,58,12.80
2016,10,12,16,59,12.90
2016,10,12,17,00,12.90
2016,10,12,17,01,12.80
2016,10,12,17,02,12.90
2016,10,12,17,03,12.90
2016,10,12,17,04,12.90
2016,10,12,17,05,12.90
2016,10,12,17,06,12.90
2016,10,12,17,07,12.90
2016,10,12,17,08,12.90
2016,10,12,17,09,12.90
2016,10,12,17,10,12.90
2016,10,12,17,11,12.90
2016,10,12,17,12,12.90
2016,10,12,17,13,12.90
2016,10,12,17,14,12.90
2016,10,12,17,15,12.80
2016,10,12,17,16,12.80
2016,10,12,17,17,12.80
2016,10,12,17,18,12.80
2016,10,12,17,19,12.80
2016,10,12,17,20,12.80
2016,10,12,17,21,12.80
2016,10,12,17,22,12.80
2016,10,12,17,23,12.80
2016,10,12,17,24,12.80
2016,10,12,17,25,12.80
2016,10,12,17,26,12.80
2016,10,12,17,27,12.80
2016,10,12,17,28,12.80
2016,10,12,17,29,12.80
2016,10,12,17,30,12.80
2016,10,12,17,31,12.80
2016,10,12,17,32,12.80
2016,10,12,17,33,12.80
2016,10,12,17,34,12.80
2016,10,12,17,35,12.80
2016,10,12,17,36,12.80
2016,10,12,17,37,12.80
2016,10,12,17,38,12.80
2016,10,12,17,39,12.80
2016,10,12,17,40,12.80
2016,10,12,17,41,12.80
2016,10,12,17,42,12.80
2016,10,12,17,43,12.80
2016,10,12,17,44,12.80
2016,10,12,17,45,12.80
2016,10,12,17,46,12.80
2016,10,12,17,47,12.80